This is the latest recevied weather packets stored in our database for station/object N1HQ. If no packets are shown the sender has not sent any weather packets the latest 10 day(s).
| Time | Temp. | Humidity | Pressure | Rain* | Wind** | Luminosity | Snow |
|---|---|---|---|---|---|---|---|
| 1777743638 | 17.22° C | 91% | 1010.6 hPa | 0 mm | - | - | - |
| 1777743345 | 16.67° C | 93% | 1010.6 hPa | 0 mm | - | - | - |
| 1777743073 | 16.67° C | 92% | 1010.8 hPa | 0 mm | - | - | - |
| 1777742827 | 16.67° C | 93% | 1010.7 hPa | 0 mm | - | - | - |
| 1777742533 | 16.67° C | 93% | 1010.8 hPa | 0 mm | - | - | - |
| 1777742288 | 16.11° C | 94% | 1010.8 hPa | 0 mm | - | - | - |
| 1777741998 | 16.11° C | 94% | 1010.7 hPa | 0 mm | - | - | - |
| 1777741743 | 16.11° C | 94% | 1010.5 hPa | 0 mm | - | - | - |
| 1777741458 | 16.11° C | 94% | 1010.7 hPa | 0 mm | - | - | - |
| 1777741213 | 15.56° C | 95% | 1010.7 hPa | 0 mm | - | - | - |
| 1777740933 | 15.56° C | 96% | 1010.9 hPa | 0 mm | - | - | - |
| 1777740643 | 15.56° C | 95% | 1010.8 hPa | 0 mm | - | - | - |
| 1777740398 | 15.56° C | 96% | 1010.9 hPa | 0 mm | - | - | - |
| 1777740138 | 16.11° C | 97% | 1010.9 hPa | 0 mm | - | - | - |
| 1777739853 | 15.56° C | 96% | 1010.6 hPa | 0 mm | - | - | - |
| 1777739587 | 15.56° C | 96% | 1010.5 hPa | 0 mm | - | - | - |
| 1777739293 | 15.56° C | 98% | 1010.4 hPa | 0 mm | - | - | - |
| 1777739027 | 15° C | 98% | 1010.4 hPa | 0 mm | - | - | - |
| 1777738728 | 15° C | 99% | 1010.4 hPa | 0 mm | - | - | - |
| 1777738467 | 15° C | 99% | 1010.5 hPa | 0 mm | - | - | - |
| 1777738173 | 15° C | 99% | 1010.4 hPa | 0.25 mm | - | - | - |
| 1777737915 | 15° C | 10% | - | 0.76 mm | - | - | - |
| 1777737668 | 14.44° C | 10% | - | 1.52 mm | - | - | - |
| 1777737413 | 14.44° C | 10% | - | 2.03 mm | - | - | - |
| 1777737133 | 14.44° C | 10% | - | 2.03 mm | - | - | - |
* Rain latest hour (hover to see other rain measurements)
** Current wind speed in m/s (hover to see current wind gust speed)